Preview of NWS' New Version of Forecast
This preview is not operational and should not be used for support decisions.

Regional Weather Roundup (RWR)

Issued by National Weather Service (NWS)

                            
000
ASUS44 KMEG 260510
RWRTN 
TENNESSEE HOURLY STATE WEATHER ROUNDUP
NATIONAL WEATHER SERVICE MEMPHIS TN
1200 AM CDT MON AUG 26 2019

TNZ002-004-019-021-049-052-054-088>092-260600-
WEST TENNESSEE
  
CITY           SKY/WX    TMP DP  RH WIND       PRES   REMARKS
MEMPHIS INTL   CLOUDY    75  72  90 SE7       29.89S                  
NWS MEMPHIS      N/A     74 N/A N/A MISG        N/A                   
JACKSON        CLOUDY    72  71  97 S7        29.92S                  
DYERSBURG      LGT RAIN  72  71  97 SE5       29.89F                  
SOMERVILLE     CLOUDY    73  72  94 VRB6      29.89S                  
COVINGTON      CLOUDY    73  72  94 S7        29.89F FOG              
UNION CITY       N/A     72  72 100 S12G18    29.87F                  
BOLIVAR        CLOUDY    72  72 100 SE6       29.90F                  
PARIS          CLOUDY    72  70  94 S9        29.90F                  
HUNTINGDON     CLOUDY    72  72 100 S9        29.91F                  
LEXINGTON      CLOUDY    72  72 100 VRB6      29.92F                  
SELMER         CLOUDY    72  70  94 VRB6      29.93F                  
SAVANNAH       CLOUDY    72  72 100 S6        29.93F FOG              
$$

TNZ008-025-027-028-033-062-065-066-260600-
NORTH MIDDLE TENNESSEE
  
CITY           SKY/WX    TMP DP  RH WIND       PRES   REMARKS
NASHVILLE      CLOUDY    73  69  87 S9        29.98F                  
DICKSON        CLOUDY    72  70  94 S10G18    29.94F                  
PORTLAND       CLOUDY    72  70  94 S7        29.97F                  
CLARKSVILLE    LGT RAIN  73  72  96 SE8       29.93F                  
LEBANON        CLOUDY    72  70  94 SE5       29.97F FOG              
SMYRNA         CLOUDY    72  70  93 S10       30.00S                  
MURFREESBORO   CLOUDY    72  68  88 S12       29.97F FOG              
COOKEVILLE     CLOUDY    70  68  94 S5        30.02S                  
LIVINGSTON     CLOUDY    70  66  88 S6        30.02F                  
GALLATIN       CLOUDY    72  70  94 E5        30.00F                  
CROSSVILLE     CLOUDY    67  65  93 VRB3      30.07F                  
ROCKWOOD       CLOUDY    70  66  88 S7        30.07S                  
$$

TNZ061-075-076-078-094-096-097-260600-
SOUTH MIDDLE TENNESSEE
  
CITY           SKY/WX    TMP DP  RH WIND       PRES   REMARKS
LAWRENCEBURG   CLOUDY    72  70  94 S12       29.98F                  
LEWISBURG      CLOUDY    72  70  94 SE8       29.99S                  
FAYETTEVILLE   CLOUDY    70  70 100 S9        30.01S                  
TULLAHOMA      MOCLDY    70  68  94 S8G16     30.02R FOG              
WINCHESTER     MOCLDY    70  68  94 SE8       30.02S                  
MCMINNVILLE    CLOUDY    70  66  88 VRB6G13   30.01F                  
COLUMBIA       CLOUDY    72  72 100 SE6       29.96F                  
SHELBYVILLE    CLOUDY    70  70 100 SE7       30.00F FOG              
$$

TNZ017-018-042-046-047-260600-
NORTHEAST TENNESSEE
  
CITY           SKY/WX    TMP DP  RH WIND       PRES   REMARKS
TRI CITIES     MOCLDY    69  57  65 E5        30.12S                  
ELIZABETHTON   FAIR      68  57  68 E7        30.12F                  
GREENEVILLE    CLOUDY    68  61  77 NE5       30.10F                  
$$

TNZ012-013-036-069-073-074-260600-
CENTRAL EAST TENNESSEE
  
CITY           SKY/WX    TMP DP  RH WIND       PRES   REMARKS
KNOXVILLE      CLOUDY    72  68  87 CALM      30.04S                  
OAK RIDGE      CLOUDY    73  68  84 CALM      30.06S                  
DOWNTOWN KNOXV CLOUDY    72  72 100 CALM      30.05S                  
GATLINBURG     PTCLDY    68  66  94 CALM      30.04F                  
MORRISTOWN     CLOUDY    70  61  73 E6        30.06F                  
JACKSBORO      CLOUDY    72  70  94 CALM      30.08F                  
$$

TNZ083-085-099-260600-
SOUTHEAST TENNESSEE
  
CITY           SKY/WX    TMP DP  RH WIND       PRES   REMARKS
CHATTANOOGA    CLOUDY    74  65  73 S7        30.05F                  
DAYTON         CLOUDY    72  70  94 CALM      30.04S                  
$$

SKY/WX REPORTED AS FAIR MEANS FEW OR NO CLOUDS BELOW
12 THOUSAND FEET.